N8QF-1 Weather Reports


Display with metric or nautical units.
time (UTC)temp
F
wind
direction
speed
MPH
gust
MPH
rain 1hr
in
rain 24hr
in
rain mn
in
humidity
%
barometer
mb
20260831212644 92 215 4.0 10.0 0.00 0.00 0.00 41 1017.2
20260831212144 91 235 8.0 15.0 0.00 0.00 0.00 42 1017.3
20260831210641 92 239 7.0 17.0 0.00 0.00 0.00 41 1017.4
20260831204137 91 259 7.0 13.0 0.00 0.00 0.00 42 1017.8
20260831203636 91 243 7.0 12.0 0.00 0.00 0.00 41 1017.9
20260831203136 91 255 8.0 15.0 0.00 0.00 0.00 41 1017.9
20260831202635 91 248 9.0 17.0 0.00 0.00 0.00 42 1018.0
20260831202135 90 328 8.0 13.0 0.00 0.00 0.00 42 1017.9
20260831201634 91 252 8.0 13.0 0.00 0.00 0.00 43 1018.0
20260831201133 91 267 8.0 13.0 0.00 0.00 0.00 42 1018.2
20260831200633 92 232 5.0 14.0 0.00 0.00 0.00 41 1018.1
20260831195631 91 239 9.0 14.0 0.00 0.00 0.00 41 1018.3
20260831195130 91 255 6.0 14.0 0.00 0.00 0.00 42 1018.4
20260831194630 91 259 9.0 12.0 0.00 0.00 0.00 41 1018.6
20260831194129 91 270 8.0 15.0 0.00 0.00 0.00 41 1018.7
20260831193630 92 273 9.0 16.0 0.00 0.00 0.00 38 1018.7
20260831192628 92 267 7.0 15.0 0.00 0.00 0.00 39 1018.7
20260831192127 92 274 5.0 15.0 0.00 0.00 0.00 41 1018.8
20260831191627 91 240 10.0 14.0 0.00 0.00 0.00 39 1018.8
20260831191126 91 217 10.0 17.0 0.00 0.00 0.00 37 1018.9
20260831190626 91 245 9.0 16.0 0.00 0.00 0.00 41 1018.9
20260831190125 92 266 5.0 16.0 0.00 0.00 0.00 42 1018.8
20260831185625 90 222 7.0 14.0 0.00 0.00 0.00 42 1018.9
20260831185124 90 274 5.0 14.0 0.00 0.00 0.00 45 1019.0
20260831184624 90 249 4.0 11.0 0.00 0.00 0.00 47 1019.1
20260831184123 90 225 6.0 12.0 0.00 0.00 0.00 46 1019.1
20260831183623 89 271 9.0 14.0 0.00 0.00 0.00 46 1019.2
20260831183122 89 273 9.0 12.0 0.00 0.00 0.00 45 1019.2
20260831182622 89 259 6.0 18.0 0.00 0.00 0.00 46 1019.2
20260831182121 89 224 9.0 13.0 0.00 0.00 0.00 46 1019.3
20260831181620 90 264 8.0 18.0 0.00 0.00 0.00 48 1019.3
20260831181120 89 242 8.0 16.0 0.00 0.00 0.00 48 1019.4
20260831180620 90 242 10.0 15.0 0.00 0.00 0.00 47 1019.4
20260831180119 90 239 5.0 12.0 0.00 0.00 0.00 49 1019.3
20260831175618 89 271 6.0 19.0 0.00 0.00 0.00 49 1019.4
20260831175118 89 225 8.0 15.0 0.00 0.00 0.00 50 1019.5
20260831174616 89 228 8.0 17.0 0.00 0.00 0.00 51 1019.3
20260831174116 89 228 10.0 21.0 0.00 0.00 0.00 51 1019.5
20260831173615 88 242 12.0 18.0 0.00 0.00 0.00 52 1019.6
20260831173115 88 257 8.0 21.0 0.00 0.00 0.00 52 1019.6
20260831172614 88 260 10.0 14.0 0.00 0.00 0.00 53 1019.6
20260831172114 88 224 7.0 12.0 0.00 0.00 0.00 53 1019.6
20260831171613 88 262 7.0 14.0 0.00 0.00 0.00 55 1019.5
20260831171113 87 262 7.0 13.0 0.00 0.00 0.00 55 1019.6
20260831170612 87 277 9.0 13.0 0.00 0.00 0.00 55 1019.7
20260831170112 87 290 6.0 13.0 0.00 0.00 0.00 56 1019.8
20260831165611 87 255 10.0 12.0 0.00 0.00 0.00 57 1019.8
20260831165110 87 253 6.0 11.0 0.00 0.00 0.00 56 1019.8
20260831164610 87 243 6.0 14.0 0.00 0.00 0.00 57 1019.9
20260831164109 86 309 10.0 10.0 0.00 0.00 0.00 57 1019.8
20260831163609 86 281 6.0 8.0 0.00 0.00 0.00 58 1019.9
20260831163108 86 236 4.0 11.0 0.00 0.00 0.00 59 1019.9
20260831162107 85 262 6.0 13.0 0.00 0.00 0.00 59 1020.0
20260831161607 85 236 6.0 10.0 0.00 0.00 0.00 59 1020.0
20260831161106 85 229 5.0 9.0 0.00 0.00 0.00 61 1020.0
20260831160606 83 329 2.0 8.0 0.00 0.00 0.00 63 1020.1
20260831160105 83 225 5.0 10.0 0.00 0.00 0.00 62 1020.1
20260831155605 83 239 5.0 12.0 0.00 0.00 0.00 63 1020.0
20260831155104 83 231 9.0 12.0 0.00 0.00 0.00 61 1019.9
20260831154604 83 228 9.0 10.0 0.00 0.00 0.00 62 1020.0
20260831154103 83 260 8.0 9.0 0.00 0.00 0.00 62 1019.9
20260831153603 83 243 5.0 8.0 0.00 0.00 0.00 62 1019.9
20260831153102 83 191 5.0 9.0 0.00 0.00 0.00 63 1019.8
20260831152602 83 221 4.0 9.0 0.00 0.00 0.00 62 1019.8
20260831152101 82 226 5.0 7.0 0.00 0.00 0.00 63 1019.9
20260831151601 82 180 4.0 11.0 0.00 0.00 0.00 65 1019.8
20260831151100 81 231 6.0 8.0 0.00 0.00 0.00 64 1019.9
20260831150559 81 246 6.0 11.0 0.00 0.00 0.00 64 1019.8
20260831150059 81 256 7.0 8.0 0.00 0.00 0.00 64 1019.8
20260831145558 81 245 6.0 10.0 0.00 0.00 0.00 64 1019.7
20260831145058 81 231 3.0 9.0 0.00 0.00 0.00 65 1019.7
20260831144558 81 249 4.0 8.0 0.00 0.00 0.00 66 1019.7
20260831144057 80 250 4.0 9.0 0.00 0.00 0.00 66 1019.7
20260831143556 80 221 7.0 9.0 0.00 0.00 0.00 67 1019.7
20260831143056 80 229 3.0 9.0 0.00 0.00 0.00 67 1019.7
20260831142555 80 246 6.0 8.0 0.00 0.00 0.00 67 1019.6
20260831142055 79 242 6.0 8.0 0.00 0.00 0.00 67 1019.5
20260831141554 79 256 4.0 4.0 0.00 0.00 0.00 68 1019.5
20260831141054 79 240 2.0 4.0 0.00 0.00 0.00 70 1019.5
20260831140553 79 152 3.0 5.0 0.00 0.00 0.00 70 1019.5
20260831140053 78 167 3.0 5.0 0.00 0.00 0.00 71 1019.5
20260831135552 78 233 2.0 6.0 0.00 0.00 0.00 71 1019.5
20260831135052 78 221 3.0 4.0 0.00 0.00 0.00 70 1019.5
20260831134551 78 177 2.0 4.0 0.00 0.00 0.00 71 1019.4
20260831134051 78 155 3.0 4.0 0.00 0.00 0.00 71 1019.6
20260831133549 77 198 3.0 4.0 0.00 0.00 0.00 72 1019.6
20260831133119 77 163 3.0 3.0 0.00 0.00 0.00 73 1019.6
20260831133048 77 163 3.0 3.0 0.00 0.00 0.00 73 1019.6
20260831132548 77 188 2.0 2.0 0.00 0.00 0.00 74 1019.6
20260831132205 76 187 0.0 2.0 0.00 0.00 0.00 74 1019.6
20260831132047 76 187 0.0 2.0 0.00 0.00 0.00 74 1019.6
20260831131547 76 149 1.0 1.0 0.00 0.00 0.00 75 1019.7
20260831131046 76 134 1.0 2.0 0.00 0.00 0.00 75 1019.6
20260831130546 76 138 0.0 2.0 0.00 0.00 0.00 75 1019.6
20260831130045 76 135 1.0 3.0 0.00 0.00 0.00 75 1019.5
20260831125545 76 115 2.0 3.0 0.00 0.00 0.00 75 1019.4
20260831125044 75 156 1.0 3.0 0.00 0.00 0.00 76 1019.5
20260831124544 75 152 2.0 2.0 0.00 0.00 0.00 75 1019.4
20260831123542 75 145 1.0 3.0 0.00 0.00 0.00 76 1019.3
20260831123041 75 146 1.0 2.0 0.00 0.00 0.00 76 1019.3
20260831122541 75 142 1.0 2.0 0.00 0.00 0.00 77 1019.4
20260831122040 75 135 1.0 2.0 0.00 0.00 0.00 77 1019.4
20260831121540 75 132 2.0 2.0 0.00 0.00 0.00 77 1019.3
20260831121039 75 136 1.0 2.0 0.00 0.00 0.00 77 1019.3
20260831120539 75 128 0.0 2.0 0.00 0.00 0.00 77 1019.3
20260831120038 74 104 1.0 0.0 0.00 0.00 0.00 77 1019.3
20260831115538 74 124 0.0 0.0 0.00 0.00 0.00 78 1019.2
20260831115037 74 124 0.0 0.0 0.00 0.00 0.00 78 1019.1
20260831114036 74 124 0.0 0.0 0.00 0.00 0.00 78 1019.1
20260831113535 74 124 0.0 0.0 0.00 0.00 0.00 78 1019.1
20260831113035 74 124 0.0 0.0 0.00 0.00 0.00 77 1019.1
20260831112534 74 124 0.0 1.0 0.00 0.00 0.00 77 1019.0
20260831112034 74 124 0.0 1.0 0.00 0.00 0.00 77 1019.0
20260831111533 74 139 0.0 3.0 0.00 0.00 0.00 77 1019.0
20260831110532 74 76 0.0 2.0 0.00 0.00 0.00 78 1018.9
20260831105031 74 93 1.0 2.0 0.00 0.00 0.00 77 1018.6
20260831104530 74 35 0.0 0.0 0.00 0.00 0.00 77 1018.6
20260831103528 74 75 1.0 0.0 0.00 0.00 0.00 78 1018.4
20260831103028 74 72 0.0 0.0 0.00 0.00 0.00 78 1018.4
20260831102527 74 72 0.0 3.0 0.00 0.00 0.00 78 1018.4
20260831102027 74 72 0.0 3.0 0.00 0.00 0.00 78 1018.4
20260831101526 74 68 2.0 4.0 0.00 0.00 0.00 78 1018.3
20260831101026 74 79 3.0 0.0 0.00 0.00 0.00 78 1018.3
20260831100525 74 83 0.0 0.0 0.00 0.00 0.00 78 1018.3
20260831100025 74 83 0.0 0.0 0.00 0.00 0.00 78 1018.3
20260831095523 74 83 0.0 0.0 0.00 0.00 0.00 78 1018.3
20260831095021 74 83 0.0 0.0 0.00 0.00 0.00 78 1018.3
20260831094020 74 83 0.0 0.0 0.00 0.00 0.00 78 1018.3
20260831093520 74 83 0.0 0.0 0.00 0.00 0.00 78 1018.4
20260831093019 74 83 0.0 0.0 0.00 0.00 0.00 78 1018.4
20260831092519 74 83 0.0 0.0 0.00 0.00 0.00 79 1018.4
20260831092018 74 83 0.0 0.0 0.00 0.00 0.00 79 1018.6
20260831091518 74 83 0.0 0.0 0.00 0.00 0.00 79 1018.4
20260831091017 74 83 0.0 0.0 0.00 0.00 0.00 79 1018.4
20260831090015 74 83 0.0 0.0 0.00 0.00 0.00 78 1018.4
20260831085014 74 83 0.0 0.0 0.00 0.00 0.00 79 1018.3
20260831084013 74 83 0.0 0.0 0.00 0.00 0.00 79 1018.3
20260831083513 74 83 0.0 0.0 0.00 0.00 0.00 79 1018.3
20260831083012 74 83 0.0 0.0 0.00 0.00 0.00 80 1018.2
20260831082621 74 83 0.0 0.0 0.00 0.00 0.00 80 1018.1
20260831082511 74 83 0.0 0.0 0.00 0.00 0.00 80 1018.1
20260831082011 74 83 0.0 0.0 0.00 0.00 0.00 80 1018.2
20260831081510 74 83 0.0 0.0 0.00 0.00 0.00 81 1018.3
20260831081010 74 83 0.0 0.0 0.00 0.00 0.00 81 1018.1
20260831080509 74 83 0.0 0.0 0.00 0.00 0.00 81 1017.9
20260831080009 74 83 0.0 0.0 0.00 0.00 0.00 81 1017.9
20260831075508 74 83 0.0 0.0 0.00 0.00 0.00 81 1017.7
20260831075008 74 83 0.0 0.0 0.00 0.00 0.00 81 1017.8
20260831074507 74 83 0.0 2.0 0.00 0.00 0.00 81 1017.8
20260831074007 74 83 0.0 2.0 0.00 0.00 0.00 81 1017.9
20260831073506 74 51 2.0 3.0 0.00 0.00 0.00 81 1017.9
20260831073006 74 89 0.0 0.0 0.00 0.00 0.00 80 1017.9
20260831072505 74 89 0.0 2.0 0.00 0.00 0.00 80 1018.0
20260831072005 74 89 0.0 4.0 0.00 0.00 0.00 80 1018.1
20260831071503 74 107 2.0 2.0 0.00 0.00 0.00 80 1018.2
20260831071003 74 79 0.0 3.0 0.00 0.00 0.00 80 1018.2
20260831070502 74 94 2.0 4.0 0.00 0.00 0.00 80 1018.2
20260831070040 74 142 3.0 5.0 0.00 0.00 0.00 80 1018.2
20260831070002 74 142 3.0 5.0 0.00 0.00 0.00 80 1018.2
20260831065000 74 110 0.0 0.0 0.00 0.00 0.00 81 1018.4
20260831064500 74 110 0.0 0.0 0.00 0.00 0.00 81 1018.6
20260831063959 74 110 0.0 3.0 0.00 0.00 0.00 81 1018.6
20260831063459 74 110 1.0 5.0 0.00 0.00 0.00 81 1018.4
20260831062958 74 120 3.0 4.0 0.00 0.00 0.00 81 1018.6
20260831062458 74 145 0.0 0.0 0.00 0.00 0.00 81 1018.6
20260831061957 74 65 0.0 0.0 0.00 0.00 0.00 81 1018.8
20260831061456 74 65 0.0 0.0 0.00 0.00 0.00 80 1018.8
20260831060955 74 65 0.0 0.0 0.00 0.00 0.00 80 1018.8
20260831060455 74 65 0.0 0.0 0.00 0.00 0.00 80 1018.9
20260831055954 74 65 0.0 0.0 0.00 0.00 0.00 80 1018.9
20260831054953 74 65 0.0 0.0 0.00 0.00 0.00 81 1019.1
20260831054453 74 65 0.0 0.0 0.00 0.00 0.00 81 1019.1
20260831053950 73 65 0.0 0.0 0.00 0.00 0.00 82 1019.1
20260831053450 73 65 0.0 0.0 0.00 0.00 0.00 82 1019.1
20260831052949 73 65 0.0 0.0 0.00 0.00 0.00 82 1019.1
20260831052449 73 65 0.0 0.0 0.00 0.00 0.00 82 1019.1
20260831051948 73 65 0.0 0.0 0.00 0.00 0.00 81 1019.1
20260831051448 74 65 0.0 0.0 0.00 0.00 0.00 81 1019.1
20260831050947 74 65 0.0 0.0 0.00 0.00 0.00 81 1019.1
20260831050447 74 65 0.0 0.0 0.00 0.00 0.00 80 1019.1
20260831045945 74 65 0.0 0.0 0.00 0.00 0.00 80 1019.0
20260831045444 74 65 0.0 0.0 0.00 0.00 0.00 80 1019.0
20260831044944 74 65 0.0 0.0 0.00 0.00 0.00 80 1018.9
20260831044443 74 65 0.0 0.0 0.00 0.00 0.00 80 1018.9
20260831043443 74 65 0.0 0.0 0.00 0.00 0.00 79 1018.9
20260831042942 74 65 0.0 0.0 0.00 0.00 0.00 78 1018.9
20260831042441 74 65 0.0 0.0 0.00 0.00 0.00 78 1019.1
20260831041941 74 65 0.0 0.0 0.00 0.00 0.00 78 1019.1
20260831041440 74 65 0.0 0.0 0.00 0.00 0.00 78 1019.1
20260831040940 74 65 0.0 1.0 0.00 0.00 0.00 77 1019.0
20260831040535 75 65 0.0 1.0 0.00 0.00 0.00 77 1019.0
20260831040439 75 65 0.0 1.0 0.00 0.00 0.00 77 1019.0
20260831034938 75 70 0.0 0.0 0.00 0.00 0.00 76 1019.0
20260831034437 75 70 0.0 0.0 0.00 0.00 0.00 75 1019.1
20260831033937 75 70 0.0 0.0 0.00 0.00 0.00 74 1019.1
20260831033436 76 70 0.0 0.0 0.00 0.00 0.00 74 1019.0
20260831032936 76 70 0.0 0.0 0.00 0.00 0.00 73 1019.0
20260831032435 76 70 0.0 0.0 0.00 0.00 0.00 73 1019.0
20260831031935 76 70 0.0 0.0 0.00 0.00 0.00 72 1019.1
20260831031434 76 70 0.0 0.0 0.00 0.00 0.00 72 1019.1
20260831030933 76 70 0.0 0.0 0.00 0.00 0.00 71 1019.1
20260831030433 76 70 0.0 0.0 0.00 0.00 0.00 71 1019.0
20260831025932 76 70 0.0 0.0 0.00 0.00 0.00 71 1018.9
20260831025432 77 70 0.0 0.0 0.00 0.00 0.00 71 1019.0
20260831024931 77 70 0.0 0.0 0.00 0.00 0.00 71 1019.1
20260831024431 77 70 0.0 0.0 0.00 0.00 0.00 70 1019.1
20260831023930 77 70 0.0 0.0 0.00 0.00 0.00 69 1019.0
20260831023427 77 70 0.0 0.0 0.00 0.00 0.00 69 1019.0
20260831022926 78 70 0.0 0.0 0.00 0.00 0.00 68 1019.0
20260831022426 78 70 0.0 0.0 0.00 0.00 0.00 67 1019.0
20260831021424 79 70 0.0 2.0 0.00 0.00 0.00 67 1019.0
20260831020422 79 48 0.0 3.0 0.00 0.00 0.00 66 1018.9
20260831015921 79 104 0.0 3.0 0.00 0.00 0.00 66 1018.8
20260831015421 79 70 2.0 4.0 0.00 0.00 0.00 66 1018.8
20260831014920 79 89 3.0 3.0 0.00 0.00 0.00 66 1018.8
20260831014419 78 55 3.0 3.0 0.00 0.00 0.00 67 1018.8
20260831013919 78 51 2.0 2.0 0.00 0.00 0.00 67 1018.9
20260831013418 78 37 2.0 2.0 0.00 0.00 0.00 67 1018.9
20260831012416 78 340 0.0 0.0 0.00 0.00 0.00 68 1018.9
20260831011916 78 340 0.0 0.0 0.00 0.00 0.00 67 1018.8
20260831011415 78 340 0.0 0.0 0.00 0.00 0.00 67 1018.9
20260831010915 78 340 0.0 0.0 0.00 0.00 0.00 66 1018.8
20260831010414 79 340 0.0 0.0 0.00 0.00 0.00 65 1018.8
20260831005914 79 340 0.0 0.0 0.00 0.00 0.00 65 1018.8
20260831005413 79 340 0.0 0.0 0.00 0.00 0.00 64 1018.6
20260831004913 80 340 0.0 0.0 0.00 0.00 0.00 64 1018.4
20260831004412 80 340 0.0 0.0 0.00 0.00 0.00 63 1018.3
20260831003912 80 340 0.0 0.0 0.00 0.00 0.00 62 1018.3
20260831003411 80 340 0.0 0.0 0.00 0.00 0.00 61 1018.3
20260831002911 81 340 0.0 0.0 0.00 0.00 0.00 60 1018.3
20260831002410 81 340 0.0 0.0 0.00 0.00 0.00 59 1018.2
20260831001408 82 340 0.0 0.0 0.00 0.00 0.00 58 1018.1
20260831000908 82 340 0.0 0.0 0.00 0.00 0.00 56 1018.2
20260831000407 83 340 0.0 0.0 0.00 0.00 0.00 55 1018.3
20260830235906 83 340 0.0 0.0 0.00 0.00 0.00 53 1018.3
20260830235406 84 340 0.0 1.0 0.00 0.00 0.00 52 1018.2
20260830234905 84 340 0.0 3.0 0.00 0.00 0.00 51 1018.1
20260830234405 85 290 2.0 8.0 0.00 0.00 0.00 50 1018.1
20260830233905 85 277 2.0 5.0 0.00 0.00 0.00 48 1018.1
20260830233404 85 260 0.0 5.0 0.00 0.00 0.00 47 1018.0
20260830232902 86 290 3.0 5.0 0.00 0.00 0.00 46 1018.0
20260830232402 86 285 3.0 5.0 0.00 0.00 0.00 46 1017.9
20260830231901 86 285 2.0 7.0 0.00 0.00 0.00 45 1018.0
20260830231401 86 249 6.0 9.0 0.00 0.00 0.00 44 1018.0
20260830230900 87 231 5.0 9.0 0.00 0.00 0.00 44 1018.0
20260830230400 87 242 5.0 8.0 0.00 0.00 0.00 44 1017.8
20260830225859 87 255 4.0 8.0 0.00 0.00 0.00 44 1017.7
20260830225359 86 219 4.0 7.0 0.00 0.00 0.00 45 1017.6
20260830224858 86 240 4.0 7.0 0.00 0.00 0.00 44 1017.7
20260830224357 86 242 5.0 8.0 0.00 0.00 0.00 45 1017.6
20260830223856 86 228 3.0 7.0 0.00 0.00 0.00 44 1017.6
20260830223355 87 207 4.0 12.0 0.00 0.00 0.00 44 1017.5
20260830222855 87 240 5.0 9.0 0.00 0.00 0.00 43 1017.6
20260830222355 87 217 6.0 9.0 0.00 0.00 0.00 43 1017.6
20260830221854 87 250 6.0 8.0 0.00 0.00 0.00 44 1017.7
20260830221353 86 231 4.0 8.0 0.00 0.00 0.00 44 1017.7
20260830220853 86 218 4.0 8.0 0.00 0.00 0.00 45 1017.5
20260830220352 86 250 5.0 9.0 0.00 0.00 0.00 45 1017.4
20260830215852 86 240 6.0 6.0 0.00 0.00 0.00 44 1017.6
20260830215351 86 266 4.0 8.0 0.00 0.00 0.00 45 1017.7
20260830214851 86 208 5.0 9.0 0.00 0.00 0.00 44 1017.7
20260830214350 86 255 3.0 8.0 0.00 0.00 0.00 45 1017.7
20260830213850 86 219 4.0 6.0 0.00 0.00 0.00 46 1017.7
20260830212849 86 236 4.0 6.0 0.00 0.00 0.00 46 1017.8